Location: Grange Verzio
(44.5000°N, 6.9833°E)
Time: 12:18:21
(UTC+00:00)

CZ-4 R/B - Visible Passes

Search period start: 25 September 2023 00:00
Search period end: 05 October 2023 00:00
Orbit: 521 x 583 km, 97.7° (Epoch: 24 September)

Date Brightness Start Highest point End Pass type
(mag) Time Alt. Az. Time Alt. Az. Time Alt. Az.
25 Sep 2.1 18:06:17 10° SE 18:09:41 30° ENE 18:13:05 10° N visible
25 Sep 3.7 19:41:30 10° SW 19:44:29 21° W 19:47:28 10° NW visible
26 Sep 2.2 18:02:44 10° SE 18:06:03 27° ENE 18:09:20 10° N visible
26 Sep 3.6 19:37:41 10° SSW 19:40:48 23° W 19:43:54 10° NW visible
27 Sep 2.4 17:59:12 10° SE 18:02:23 25° ENE 18:05:34 10° NNE visible
27 Sep 3.4 19:33:52 10° SSW 19:37:05 25° W 19:40:18 10° NW visible
28 Sep 2.5 17:55:39 10° ESE 17:58:43 23° ENE 18:01:46 10° NNE visible
28 Sep 3.2 19:30:02 10° SSW 19:33:23 27° W 19:36:42 10° NW visible
29 Sep 2.6 17:52:07 10° ESE 17:55:03 21° ENE 17:57:58 10° NNE visible
29 Sep 3.1 19:26:21 11° SSW 19:29:40 30° W 19:33:04 10° NW visible
30 Sep 2.7 17:48:36 10° ESE 17:51:22 19° ENE 17:54:08 10° NNE visible
30 Sep 2.9 19:22:51 12° SSW 19:25:56 33° W 19:29:26 10° NNW visible
01 Oct 2.8 17:45:05 10° ESE 17:47:41 18° ENE 17:50:17 10° NNE visible
01 Oct 2.7 19:19:21 14° SSW 19:22:12 36° W 19:25:46 10° NNW visible
02 Oct 2.9 17:41:35 10° ESE 17:43:59 16° ENE 17:46:24 10° NNE visible
02 Oct 2.5 19:15:50 17° SSW 19:18:28 40° W 19:22:04 10° NNW visible
03 Oct 3.0 17:38:06 10° E 17:40:18 15° ENE 17:42:29 10° NNE visible
03 Oct 2.3 19:12:19 19° SSW 19:14:43 45° W 19:18:23 10° NNW visible
04 Oct 3.1 17:34:39 10° E 17:36:35 14° ENE 17:38:32 10° NNE visible
04 Oct 2.0 19:08:46 22° SSW 19:10:57 50° W 19:14:40 10° NNW visible
